Tracking 22881 objects as of 20-Apr-2021
HD Live streaming from Space Station
objects crossing your sky now

STARLINK-2287

Track STARLINK-2287 now!
10-day predictions
STARLINK-2287 is classified as:


NORAD ID: 48035
Int'l Code: 2021-024BL
Perigee: 356.0 km
Apogee: 357.8 km
Inclination: 53.0 °
Period: 91.5 minutes
Semi major axis: 6727 km
RCS: Unknown
Launch date: March 24, 2021
Source: United States (US)
Launch site: AIR FORCE EASTERN TEST RANGE (AFETR)
aabbcc
Your satellite tracking list
Your tracking list is empty




NASA's NSSDC Master Catalog

Two Line Element Set (TLE):
1 48035U 21024BL  21109.58334491  .00005484  00000-0  43458-4 0  9998
2 48035  53.0485  73.8542 0001321  76.7757 205.4667 15.73203576  1776
Source of the keplerian elements: AFSPC